Wind_Speed
39 39 36 34 33 31 28 23 18 14 11 9 10 12 13 15 17 18 18 17 17 17 18 19 21 23 23 22 22 21 20 20 20 19 18 17 17 18 18 17 16 17 18 18 17 17 17 16 16 17 19 20 20 17 16 17 18 19 21 21 21 23 25
39 40 39 36 35 34 32 27 22 18 15 12 13 14 16 17 18 18 18 18 17 16 17 19 21 22 22 22 22 21 20 20 21 20 19 19 19 19 19 18 17 17 18 18 18 17 17 16 16 17 18 20 22 22 19 17 18 19 21 21 21 21 22
38 41 42 38 36 36 35 30 26 23 20 17 16 17 18 19 20 19 19 18 18 16 17 19 20 21 22 22 21 21 20 20 21 21 21 20 20 21 20 20 19 19 19 19 19 19 19 17 16 16 18 19 21 22 21 19 18 18 20 22 23 22 22
39 40 42 40 37 38 36 32 30 27 22 20 19 19 19 20 21 20 19 19 18 16 17 18 19 20 21 21 21 21 20 21 21 21 22 22 22 21 20 20 20 20 21 21 21 21 21 20 19 17 16 18 19 21 22 22 20 18 20 23 24 25 24
41 39 41 40 38 39 37 34 33 29 24 23 21 18 18 19 21 21 20 19 19 17 16 18 19 20 21 22 21 21 21 21 21 22 22 23 23 22 21 20 21 21 22 22 22 22 23 22 21 20 18 17 17 18 20 22 21 20 20 23 25 27 27
41 40 42 42 39 40 39 36 33 29 26 24 20 17 17 19 21 21 20 19 19 18 16 17 19 20 21 22 22 21 21 21 22 22 22 23 23 22 21 21 21 22 22 23 23 23 23 23 22 22 21 19 17 16 17 19 20 20 20 22 25 27 28
42 41 44 43 40 41 40 37 34 31 29 26 22 20 20 22 22 21 20 20 20 19 17 17 18 20 21 22 22 22 21 21 22 22 22 23 23 23 22 22 22 23 23 24 24 24 24 23 23 24 23 23 21 18 17 17 18 19 19 20 23 26 29
44 43 45 44 41 42 41 38 35 32 30 28 26 25 25 25 25 22 21 21 20 20 19 18 18 19 21 22 23 22 22 21 22 23 23 23 23 23 23 22 22 23 24 24 24 24 24 24 24 24 24 25 24 22 20 19 18 18 18 19 22 25 28
44 43 44 43 41 42 42 39 36 33 31 30 30 29 28 28 27 24 23 23 22 21 20 19 20 20 20 21 23 23 22 22 22 23 23 22 23 24 24 23 23 24 24 24 25 25 25 25 25 25 25 25 26 26 24 22 21 20 19 20 21 24 26
45 45 43 41 40 42 42 42 39 36 33 31 31 30 30 30 29 26 25 24 23 23 21 21 21 21 21 21 23 23 23 22 22 23 23 23 23 23 24 24 23 24 24 24 25 25 25 25 25 25 25 26 27 27 27 26 24 23 22 21 21 24 25
46 46 44 42 41 41 42 43 42 38 33 31 31 32 31 31 29 27 26 25 25 25 23 22 23 23 22 21 22 23 23 23 23 24 24 23 23 24 24 24 24 24 25 25 25 26 26 26 26 26 26 26 27 28 28 28 27 26 25 24 24 25 26
48 50 49 49 47 43 41 44 45 41 36 33 33 33 32 31 31 29 27 26 26 27 25 22 23 24 23 22 22 23 23 23 24 25 25 25 24 24 24 24 24 25 25 25 26 27 27 27 27 27 27 27 27 28 29 29 29 28 28 27 27 27 28
47 51 52 53 53 47 42 44 48 46 40 36 34 34 33 33 32 31 29 28 28 28 26 24 24 25 24 23 22 23 22 23 24 25 26 26 25 24 24 25 25 25 26 26 26 27 28 27 27 27 28 28 28 28 28 29 29 29 29 29 29 29 30
46 48 50 52 52 49 45 44 45 46 41 38 36 35 34 34 33 33 32 30 29 29 28 25 26 26 25 24 23 23 23 23 24 25 26 26 26 25 25 25 25 26 26 27 27 28 28 28 28 28 28 29 29 29 29 29 29 29 29 30 30 30 31
47 46 47 49 49 49 47 44 43 42 39 38 37 37 36 35 35 35 34 32 31 30 29 27 27 27 26 25 24 24 24 23 24 25 26 27 27 25 25 25 26 26 27 28 28 28 28 29 29 29 30 29 29 29 29 30 30 30 30 30 31 31 32
49 47 45 45 46 47 46 44 42 40 38 39 39 38 37 37 37 36 35 34 32 31 30 29 28 28 27 26 25 24 25 25 25 25 26 27 27 25 25 25 26 26 27 28 29 29 29 29 30 30 30 29 29 29 29 30 31 31 31 31 31 31 32
52 50 47 45 44 45 45 43 42 40 40 41 41 39 39 39 39 38 36 35 35 33 31 30 30 30 28 27 26 25 25 26 26 25 26 27 26 25 24 26 26 26 26 28 29 29 29 29 30 30 30 29 28 28 29 30 31 32 32 32 32 32 33
53 52 49 47 44 43 44 44 43 41 41 41 40 40 40 39 40 39 37 37 37 36 33 31 31 31 30 28 27 26 26 27 27 26 26 26 26 24 24 25 26 26 26 27 29 29 29 29 30 30 29 29 29 29 29 30 31 33 33 33 33 33 33
54 52 50 48 44 43 44 45 45 44 42 40 40 40 40 39 39 39 39 39 39 39 36 33 32 32 31 29 28 27 27 28 28 28 26 26 25 24 23 24 26 27 27 28 29 29 29 29 30 30 30 29 30 30 30 30 31 33 34 34 33 33 33
56 54 51 48 47 46 46 46 47 46 43 41 40 40 40 39 38 38 40 40 40 40 39 36 34 34 33 30 29 29 28 28 29 29 27 26 25 24 23 24 25 27 28 28 30 30 30 30 30 30 29 29 29 29 30 30 31 32 34 34 34 33 32
57 55 52 51 50 50 49 49 49 49 46 43 42 41 41 39 38 38 39 40 40 41 40 38 36 35 34 31 30 30 29 28 29 29 28 27 26 25 24 24 25 26 27 28 29 30 30 30 30 30 29 29 29 29 29 30 31 32 34 35 34 33 32
59 57 55 54 54 52 51 51 51 49 48 46 44 43 42 40 39 39 39 39 40 40 41 40 38 36 35 33 31 31 30 29 29 30 29 27 27 26 25 24 24 25 26 27 29 30 30 30 30 29 29 29 29 29 30 31 32 33 34 35 35 33 32
61 59 57 56 56 53 51 51 51 49 46 45 45 44 43 42 42 40 39 39 40 40 41 40 39 38 36 33 32 32 31 29 29 30 29 28 28 27 26 25 24 25 26 27 28 30 30 30 30 29 30 30 30 30 30 32 33 33 34 35 35 34 32
59 57 56 56 57 54 51 52 53 51 46 44 45 45 44 45 44 42 40 40 40 40 40 40 41 41 38 34 34 33 32 30 29 30 30 29 28 28 27 26 24 24 25 26 28 30 31 30 30 30 30 31 31 30 32 33 34 34 35 35 36 36 34
59 57 55 56 58 56 55 55 56 55 50 45 45 47 46 46 47 44 43 42 42 41 41 41 43 44 40 36 35 35 33 31 30 30 31 30 29 28 28 27 25 24 25 27 28 30 31 31 30 30 30 31 31 31 32 34 34 35 35 35 37 37 35
63 61 59 59 59 60 59 58 59 60 54 48 47 49 48 48 48 47 46 45 43 42 42 43 45 45 41 38 37 36 34 33 32 30 31 31 29 28 28 28 26 24 26 27 28 29 31 31 30 31 31 31 32 32 33 34 35 35 35 36 37 37 36
66 64 63 62 62 62 62 61 62 62 57 52 51 51 50 49 49 49 50 48 45 44 43 44 47 46 42 40 39 38 36 35 34 32 32 33 30 28 28 29 27 26 26 28 28 29 30 30 30 31 31 31 32 32 33 33 34 36 36 37 37 36 35
65 64 64 64 64 63 63 62 62 61 58 54 53 52 51 50 49 50 51 50 49 46 44 45 48 46 43 41 41 40 38 37 36 33 33 33 31 28 27 28 29 28 27 28 30 30 30 29 29 30 31 31 32 32 32 33 34 35 36 37 36 35 35
64 64 65 66 67 65 64 63 62 61 59 58 56 54 53 52 50 49 50 51 52 50 47 47 48 46 44 43 42 41 39 38 38 35 33 34 32 28 27 28 29 30 29 29 30 31 31 29 28 30 31 31 32 32 32 33 34 35 36 37 36 35 36
63 65 66 68 69 68 67 67 66 64 62 61 59 56 54 53 52 50 50 51 53 52 49 48 48 47 45 44 44 43 41 40 39 36 34 35 32 28 27 27 29 31 30 28 30 32 31 30 29 30 31 32 33 32 32 33 34 35 36 36 36 36 38
62 64 66 68 69 69 69 69 68 67 65 63 60 57 55 54 53 52 52 52 52 53 51 49 48 47 46 45 45 44 43 42 41 37 35 35 33 29 27 27 28 31 30 28 29 31 32 31 30 30 31 33 33 33 33 34 34 34 34 36 37 38 40
63 62 64 66 67 67 68 69 68 67 66 63 61 59 56 56 55 54 52 52 53 54 53 51 49 48 47 47 46 46 45 44 42 39 35 35 33 30 27 27 28 30 30 29 29 31 32 32 31 31 32 33 33 34 35 35 36 36 36 37 39 40 41
63 63 62 63 65 65 66 67 68 67 66 63 62 61 60 59 59 58 56 54 54 56 55 53 50 49 49 49 49 49 48 45 43 39 36 35 34 30 27 27 29 30 30 30 31 31 32 33 32 31 32 32 33 35 36 37 37 38 37 38 39 41 42
60 62 61 61 63 64 63 64 66 67 65 64 65 66 66 63 61 60 59 57 55 57 57 54 51 50 51 52 51 50 49 46 44 40 36 35 34 30 27 28 30 31 31 32 32 33 34 34 33 32 32 33 35 37 38 39 39 39 38 38 39 42 43
57 60 60 61 64 65 64 64 66 66 66 66 67 68 68 66 63 60 60 58 57 57 58 55 52 51 52 53 53 52 49 47 45 41 36 35 34 30 28 30 31 32 32 33 34 35 36 36 35 34 34 36 37 38 39 41 41 40 39 39 40 42 40
57 58 59 61 63 65 67 67 66 66 67 67 66 65 65 65 64 63 62 60 58 58 58 56 54 53 53 53 53 52 50 48 46 41 36 35 33 30 29 30 32 32 34 35 35 35 36 36 35 35 37 38 39 40 41 42 41 41 40 40 40 41 36
57 59 60 61 61 62 65 67 66 64 65 66 66 65 64 63 65 66 65 62 59 59 59 57 55 55 54 54 53 53 51 49 46 41 37 35 33 31 30 31 32 34 35 36 35 34 34 35 35 36 38 40 42 42 43 43 43 41 40 40 40 38 33
Wind_Direction
240 233 232 231 231 236 236 231 224 225 238 254 272 283 287 287 283 281 284 291 296 304 312 316 317 320 323 323 322 323 326 325 324 324 321 316 314 314 316 315 313 311 308 308 309 309 309 309 309 308 307 309 311 311 308 305 307 308 309 314 317 319 323
247 238 234 233 233 236 239 235 230 235 246 260 277 287 291 292 286 280 281 287 293 298 308 316 317 319 323 323 320 321 324 324 322 322 321 317 313 313 314 313 312 309 308 308 308 307 306 306 307 307 307 308 310 311 311 307 306 308 309 312 315 318 322
252 245 240 236 235 236 238 236 234 239 247 260 276 285 291 293 288 280 277 283 289 293 305 316 317 319 324 325 321 319 322 323 322 321 321 319 315 312 311 311 311 310 308 308 308 306 305 304 304 304 305 306 307 309 310 306 305 308 311 313 315 318 322
255 250 242 238 238 238 237 236 238 241 247 260 272 281 288 290 286 278 273 280 285 289 303 314 317 319 324 326 323 318 319 321 321 321 322 321 318 313 311 311 311 310 308 307 307 307 306 305 304 302 303 304 306 307 306 306 309 313 314 314 315 319 322
255 250 243 240 241 240 237 235 239 244 252 261 267 276 285 288 285 276 270 278 283 287 300 311 315 318 322 326 324 319 317 318 319 319 320 320 320 316 313 311 311 309 308 307 308 308 308 307 305 304 304 304 305 306 305 308 312 315 315 315 317 319 320
251 249 244 241 242 243 238 235 240 246 254 258 261 272 285 289 286 275 268 275 282 286 296 305 312 318 321 324 325 320 316 316 317 317 317 318 319 318 314 311 310 309 308 308 309 309 308 307 305 305 306 306 307 307 306 307 309 310 312 314 315 316 317
246 246 242 239 240 242 239 236 239 246 251 254 259 272 283 286 285 276 268 272 279 283 290 299 307 314 320 322 323 320 315 314 316 316 316 317 319 319 315 311 310 309 309 309 310 310 308 307 306 306 308 309 311 311 309 306 305 305 307 310 312 313 317
242 239 236 237 239 241 239 237 239 244 248 251 259 271 278 280 281 275 267 268 274 280 286 293 300 309 317 321 322 319 315 312 313 315 315 317 319 319 316 312 310 309 309 309 309 308 307 306 306 307 309 310 312 313 312 309 306 306 307 309 312 314 318
237 230 230 235 238 240 239 236 237 240 244 251 261 270 273 275 275 271 265 265 270 276 283 289 294 302 313 320 321 319 314 311 310 312 314 316 317 318 316 313 310 308 308 308 308 306 305 305 305 306 308 310 312 313 312 311 310 310 311 311 313 314 317
233 225 229 236 238 239 237 235 235 235 242 254 264 269 270 271 270 265 261 262 267 273 279 286 291 297 307 317 321 318 313 309 308 309 313 314 314 315 316 314 311 308 308 307 307 305 303 303 304 306 307 309 311 312 313 313 314 315 315 315 315 314 316
231 226 232 239 240 239 237 235 234 233 243 258 264 265 267 268 266 262 260 260 264 270 275 283 288 293 302 313 319 318 313 308 306 306 310 313 312 313 314 314 312 308 308 307 306 304 304 304 305 306 307 309 310 311 313 316 318 319 318 318 317 316 317
230 231 238 243 244 242 239 237 235 234 246 258 260 261 264 264 262 261 260 258 261 267 272 279 285 290 298 308 316 318 312 307 305 305 307 310 310 310 312 314 312 309 307 307 306 306 306 306 305 306 307 308 310 312 315 317 319 320 319 318 317 318 319
233 235 240 243 244 242 238 237 236 238 247 255 256 257 260 260 261 262 262 258 258 264 269 275 281 286 294 302 311 316 313 306 304 303 304 306 308 308 309 311 311 308 307 307 308 309 308 307 305 305 306 308 311 314 317 318 318 318 318 317 317 318 320
236 236 238 240 242 241 238 236 235 238 245 250 251 253 255 258 261 262 262 257 255 260 267 272 277 283 290 298 306 313 313 307 303 302 302 303 305 305 306 308 309 308 308 307 308 309 309 308 306 305 307 310 312 315 317 316 316 316 316 316 316 318 321
236 234 235 237 240 240 239 236 235 238 242 244 246 249 252 255 258 260 260 257 254 256 262 268 273 279 286 293 301 308 311 309 304 302 301 301 302 303 304 305 307 309 309 308 308 310 310 309 307 307 309 312 313 314 315 314 314 314 316 316 316 318 320
233 233 232 234 236 238 237 235 235 237 239 240 243 246 249 251 253 256 260 259 254 254 258 264 269 275 282 289 296 303 308 308 305 303 301 299 300 301 302 303 306 309 310 309 308 310 311 309 309 309 310 311 311 311 311 312 313 313 315 316 317 318 319
232 232 232 233 235 237 238 237 237 237 236 238 242 245 247 248 249 253 260 261 257 254 256 261 266 271 278 285 291 298 305 306 305 305 302 299 298 300 301 302 304 307 309 308 307 308 310 309 309 309 310 309 309 308 309 312 313 314 316 318 318 318 318
233 234 235 236 236 236 239 241 241 239 237 239 242 246 248 247 248 253 258 259 258 256 254 258 264 269 275 281 287 294 300 304 304 305 302 298 298 299 300 300 302 305 307 307 306 307 309 308 309 310 310 310 309 309 311 314 315 315 317 318 317 317 317
235 236 237 238 237 236 239 242 243 241 240 240 244 247 250 250 250 253 255 254 255 255 255 256 261 267 272 278 283 289 296 301 302 303 302 299 297 298 298 298 300 302 304 305 305 307 308 308 309 311 311 311 311 312 314 317 317 317 317 317 317 316 316
236 238 239 238 238 238 238 241 243 243 242 242 245 248 250 251 250 250 251 251 252 253 254 255 259 264 269 275 280 286 291 297 300 301 301 298 296 296 296 296 298 300 302 304 306 307 308 308 310 311 312 311 311 313 316 318 319 319 319 319 317 316 316
237 238 239 239 240 241 241 239 239 242 243 243 245 246 247 248 248 248 249 249 250 251 253 255 258 262 267 272 277 281 287 294 298 299 300 298 296 295 294 294 295 297 299 303 305 306 308 308 308 310 310 309 310 312 316 319 320 322 324 323 320 317 316
236 237 238 239 240 243 245 240 237 239 241 243 245 246 247 248 248 248 248 248 248 250 253 255 259 261 264 269 273 277 284 291 295 296 298 297 295 294 293 292 293 294 297 300 303 305 306 306 306 307 307 308 309 312 316 319 320 323 326 328 325 320 315
234 235 236 238 239 241 243 241 238 238 241 244 246 246 247 249 249 248 247 246 247 249 252 256 259 261 262 266 270 274 281 287 291 293 295 295 295 294 292 291 292 294 295 297 299 302 304 305 304 304 305 306 308 311 315 317 319 321 325 327 328 324 317
231 233 234 236 237 238 239 239 239 240 243 246 246 245 247 248 249 249 247 246 247 249 252 255 258 261 261 263 267 272 278 284 286 289 292 293 293 293 291 291 292 294 294 295 296 298 301 303 304 304 303 304 306 310 313 315 317 320 323 325 326 325 320
230 231 233 236 238 239 238 238 238 239 245 250 248 245 246 246 248 250 248 247 248 251 253 254 256 259 260 262 265 269 275 281 283 285 288 290 291 291 290 290 292 294 294 293 293 295 297 301 304 304 303 303 305 307 310 313 315 318 321 323 324 324 322
232 233 233 234 237 239 238 238 236 237 244 252 250 247 245 244 245 249 249 249 250 251 253 254 255 258 260 261 264 267 274 279 281 283 285 286 288 289 289 289 292 293 292 291 291 292 294 299 303 305 304 303 303 305 308 311 313 314 316 319 321 323 322
231 232 233 233 235 237 237 237 236 237 244 250 249 247 246 244 243 245 249 251 252 252 253 253 254 257 259 260 262 266 271 276 279 282 283 283 285 287 287 288 290 291 290 289 289 290 292 297 302 304 304 303 302 304 305 307 309 311 313 316 319 321 320
231 230 231 232 233 236 237 236 236 238 243 247 247 246 246 245 244 244 246 250 252 253 254 254 253 255 257 259 260 264 269 274 278 280 281 281 281 283 284 286 288 288 287 287 288 289 291 295 299 302 303 303 302 302 303 304 306 308 311 314 317 318 319
231 230 230 231 231 234 236 237 238 241 244 245 245 245 245 244 245 246 246 248 250 251 253 254 252 253 256 257 257 261 267 272 276 278 279 278 279 280 281 282 285 286 285 286 287 288 290 294 297 299 300 301 301 301 301 302 303 305 309 311 312 314 317
230 229 230 231 232 232 234 237 239 241 243 243 243 244 244 244 246 248 248 248 249 250 252 254 253 252 254 255 256 260 266 270 273 275 276 276 277 278 278 279 282 284 284 285 286 287 290 292 293 295 297 298 300 301 301 300 301 303 306 307 307 310 315
228 229 230 231 232 233 233 236 238 239 241 242 243 243 243 244 246 248 248 248 249 250 250 252 252 251 252 253 255 259 264 268 271 273 273 274 274 275 276 278 280 281 283 285 285 286 289 290 291 292 294 296 299 300 300 298 299 301 302 303 305 308 312
227 228 230 231 232 233 233 234 236 238 239 241 243 243 243 243 244 246 246 247 249 249 249 250 250 249 249 252 255 259 263 266 269 271 271 272 273 274 275 275 277 279 282 284 284 285 286 287 289 291 293 295 298 297 297 297 298 298 300 302 305 307 309
229 227 229 231 231 232 234 235 235 236 238 239 241 242 242 242 242 243 243 245 248 248 247 248 249 248 248 250 254 258 261 265 268 269 269 270 271 273 273 273 274 276 279 282 283 284 285 287 290 293 294 295 295 294 294 295 296 298 300 303 305 306 309
232 229 230 232 232 232 233 235 236 236 236 238 239 239 239 239 240 241 242 244 246 247 246 246 247 247 247 250 254 257 260 264 266 267 267 268 270 271 271 270 271 273 276 279 281 282 284 286 290 293 293 291 290 291 292 293 294 297 301 302 304 307 309
233 231 229 230 232 232 233 235 236 236 236 237 239 239 239 239 240 240 241 242 244 245 245 245 245 246 246 248 252 256 259 262 263 264 265 266 268 271 270 268 270 273 276 277 279 281 282 286 290 292 290 287 287 287 288 290 293 296 299 301 304 308 308
233 233 231 230 231 232 232 234 235 236 237 238 240 242 242 242 242 242 242 242 242 243 243 243 243 244 245 247 251 255 258 260 261 263 263 264 266 268 267 269 271 273 274 275 277 280 283 287 290 290 287 286 285 284 285 288 291 295 297 300 303 306 303
232 234 233 232 233 232 233 234 234 235 236 238 239 241 241 240 241 243 243 241 240 240 241 240 241 243 245 246 250 254 256 258 260 261 261 262 264 264 266 270 272 272 273 275 277 280 284 287 289 288 285 284 283 282 284 285 288 293 296 298 301 302 297
Height
5843 5844 5846 5848 5850 5851 5852 5853 5853 5854 5854 5854 5855 5855 5855 5856 5856 5856 5856 5855 5854 5854 5853 5853 5852 5852 5852 5851 5850 5848 5847 5846 5845 5844 5843 5842 5841 5840 5840 5839 5838 5837 5836 5835 5835 5834 5832 5832 5831 5829 5827 5825 5824 5825 5825 5824 5822 5821 5819 5818 5818 5817 5815
5839 5841 5842 5845 5847 5848 5850 5851 5851 5852 5852 5852 5853 5853 5853 5853 5854 5854 5854 5854 5853 5852 5852 5851 5851 5850 5849 5848 5848 5847 5846 5844 5843 5843 5842 5841 5840 5839 5838 5837 5837 5836 5835 5834 5833 5832 5831 5830 5829 5828 5825 5823 5822 5822 5822 5822 5820 5819 5817 5816 5816 5815 5814
5835 5838 5839 5841 5843 5845 5846 5848 5849 5850 5850 5851 5851 5851 5851 5851 5851 5851 5852 5852 5851 5851 5850 5850 5849 5848 5847 5846 5845 5845 5844 5842 5841 5840 5840 5839 5838 5837 5836 5835 5834 5834 5832 5832 5831 5830 5830 5829 5828 5827 5825 5823 5821 5819 5819 5819 5818 5817 5815 5813 5812 5812 5812
5830 5833 5836 5838 5840 5841 5843 5845 5846 5847 5848 5849 5849 5849 5849 5849 5849 5849 5849 5850 5850 5849 5848 5848 5847 5846 5845 5844 5843 5843 5842 5841 5839 5838 5837 5836 5835 5835 5834 5833 5832 5831 5830 5829 5829 5828 5827 5826 5826 5825 5824 5822 5821 5819 5817 5816 5815 5814 5813 5811 5809 5808 5808
5826 5828 5832 5835 5836 5838 5840 5842 5843 5845 5846 5846 5847 5847 5847 5847 5847 5847 5847 5847 5848 5848 5847 5846 5845 5844 5843 5842 5841 5840 5840 5839 5838 5837 5836 5834 5833 5833 5832 5831 5830 5829 5828 5827 5827 5826 5825 5824 5823 5822 5822 5822 5820 5818 5816 5813 5812 5811 5810 5808 5806 5805 5805
5821 5824 5827 5830 5832 5833 5836 5839 5840 5842 5843 5843 5844 5845 5845 5845 5845 5845 5845 5846 5846 5846 5845 5844 5843 5842 5841 5840 5839 5838 5837 5837 5836 5835 5834 5833 5832 5831 5830 5829 5828 5827 5826 5825 5824 5824 5823 5822 5820 5819 5819 5819 5818 5817 5815 5813 5811 5810 5809 5807 5805 5803 5803
5817 5819 5822 5826 5827 5829 5832 5835 5837 5839 5840 5840 5841 5842 5842 5842 5842 5843 5843 5843 5844 5843 5843 5843 5842 5841 5840 5838 5837 5836 5835 5834 5833 5832 5832 5831 5830 5829 5828 5827 5826 5825 5824 5823 5822 5821 5821 5820 5818 5817 5816 5815 5814 5814 5814 5812 5811 5810 5809 5807 5805 5803 5801
5811 5814 5817 5821 5823 5825 5828 5831 5834 5836 5837 5837 5837 5839 5839 5839 5840 5840 5840 5841 5841 5841 5841 5840 5840 5839 5838 5837 5835 5834 5833 5832 5831 5830 5830 5829 5828 5827 5826 5825 5824 5823 5822 5821 5820 5819 5818 5818 5816 5815 5813 5811 5811 5811 5811 5811 5810 5809 5808 5806 5804 5802 5800
5805 5809 5813 5816 5819 5821 5824 5827 5829 5831 5833 5833 5834 5835 5836 5836 5837 5837 5837 5838 5839 5839 5838 5838 5838 5837 5837 5835 5834 5832 5831 5830 5829 5828 5828 5827 5826 5825 5824 5823 5822 5821 5820 5820 5819 5818 5816 5815 5814 5813 5811 5810 5808 5808 5808 5808 5808 5807 5806 5805 5803 5801 5799
5801 5804 5808 5812 5814 5817 5819 5822 5824 5827 5828 5829 5830 5831 5832 5833 5833 5834 5834 5835 5836 5836 5836 5835 5835 5835 5835 5833 5832 5830 5829 5828 5827 5826 5826 5825 5824 5823 5822 5821 5821 5820 5819 5818 5817 5816 5815 5813 5812 5811 5809 5808 5807 5805 5805 5805 5804 5804 5803 5803 5801 5799 5797
5797 5801 5804 5808 5809 5811 5814 5817 5820 5822 5824 5825 5826 5828 5829 5829 5830 5831 5831 5832 5833 5833 5833 5833 5832 5832 5832 5831 5830 5828 5827 5826 5825 5824 5824 5823 5822 5821 5820 5819 5818 5818 5817 5816 5815 5814 5813 5811 5810 5808 5807 5806 5805 5804 5802 5801 5801 5800 5800 5799 5798 5796 5795
5793 5796 5800 5802 5804 5807 5809 5812 5815 5817 5819 5820 5822 5824 5825 5826 5827 5827 5828 5829 5830 5830 5830 5830 5830 5830 5830 5829 5828 5826 5825 5824 5823 5822 5822 5821 5820 5819 5818 5817 5816 5815 5814 5814 5813 5812 5811 5809 5808 5806 5805 5804 5803 5802 5800 5798 5797 5797 5796 5795 5794 5793 5791
5787 5791 5794 5797 5799 5802 5805 5807 5810 5812 5814 5816 5818 5819 5820 5822 5823 5824 5825 5826 5827 5827 5826 5826 5827 5827 5827 5826 5825 5824 5823 5822 5821 5820 5819 5818 5818 5817 5816 5815 5814 5813 5812 5812 5811 5810 5809 5807 5806 5804 5803 5802 5800 5799 5798 5796 5795 5794 5793 5792 5791 5789 5787
5781 5784 5788 5791 5793 5796 5799 5801 5804 5807 5809 5812 5813 5814 5816 5818 5819 5820 5821 5822 5823 5824 5823 5823 5824 5824 5824 5824 5823 5822 5821 5820 5819 5818 5817 5816 5815 5815 5814 5813 5812 5811 5810 5809 5808 5807 5806 5805 5803 5802 5801 5799 5797 5796 5795 5794 5793 5792 5791 5789 5787 5786 5783
5775 5779 5781 5784 5787 5790 5793 5796 5799 5802 5804 5807 5809 5810 5812 5813 5815 5816 5817 5818 5819 5820 5820 5820 5820 5821 5821 5821 5820 5819 5818 5817 5816 5815 5814 5813 5812 5812 5811 5810 5809 5808 5807 5806 5805 5805 5804 5802 5801 5800 5798 5797 5795 5794 5793 5792 5791 5790 5788 5786 5784 5782 5780
5769 5772 5775 5778 5781 5784 5787 5791 5794 5796 5799 5802 5803 5805 5807 5809 5810 5812 5812 5813 5814 5816 5817 5816 5817 5818 5818 5818 5817 5817 5815 5814 5813 5813 5812 5810 5810 5809 5809 5807 5807 5806 5805 5803 5802 5802 5801 5800 5799 5797 5796 5795 5794 5793 5792 5790 5788 5787 5785 5783 5781 5779 5777
5763 5766 5770 5773 5776 5779 5782 5785 5788 5791 5794 5796 5798 5800 5802 5804 5805 5807 5808 5808 5810 5812 5813 5813 5813 5814 5815 5814 5814 5814 5813 5811 5811 5810 5809 5808 5807 5806 5806 5805 5804 5803 5802 5801 5799 5799 5799 5797 5796 5795 5794 5793 5792 5791 5790 5788 5785 5783 5782 5781 5779 5777 5775
5757 5761 5765 5768 5771 5774 5777 5780 5783 5786 5788 5790 5792 5795 5797 5799 5800 5802 5803 5804 5805 5807 5809 5809 5810 5810 5811 5811 5811 5810 5810 5808 5807 5807 5806 5805 5804 5803 5803 5802 5801 5800 5800 5799 5797 5797 5796 5795 5794 5793 5792 5791 5789 5788 5787 5785 5783 5781 5780 5779 5777 5775 5773
5751 5756 5760 5764 5767 5770 5773 5775 5778 5780 5783 5785 5787 5789 5791 5793 5795 5797 5799 5799 5800 5802 5804 5805 5806 5806 5807 5807 5807 5807 5806 5805 5804 5804 5803 5802 5801 5801 5800 5799 5798 5797 5796 5796 5794 5794 5793 5792 5791 5790 5789 5788 5786 5784 5783 5782 5781 5779 5777 5776 5774 5773 5770
5746 5749 5754 5758 5762 5765 5769 5771 5773 5775 5778 5780 5782 5784 5786 5788 5790 5792 5793 5794 5796 5798 5799 5801 5802 5803 5803 5804 5804 5803 5803 5802 5801 5800 5799 5799 5798 5798 5797 5796 5795 5794 5793 5792 5791 5790 5790 5789 5788 5787 5786 5785 5783 5782 5781 5780 5778 5777 5775 5773 5772 5770 5768
5740 5743 5748 5751 5754 5758 5762 5765 5767 5770 5772 5774 5776 5779 5781 5783 5785 5786 5787 5789 5791 5793 5794 5796 5798 5799 5799 5800 5800 5800 5800 5799 5798 5797 5796 5795 5795 5794 5794 5793 5792 5791 5790 5789 5788 5787 5786 5785 5785 5784 5784 5783 5781 5780 5779 5777 5776 5774 5772 5770 5768 5767 5765
5733 5737 5741 5744 5748 5751 5754 5758 5761 5764 5766 5769 5771 5773 5776 5777 5779 5780 5782 5784 5786 5787 5789 5791 5793 5795 5795 5796 5797 5796 5796 5796 5795 5793 5793 5792 5791 5791 5791 5790 5790 5789 5788 5787 5785 5784 5783 5783 5782 5782 5781 5780 5779 5778 5777 5775 5773 5771 5769 5767 5765 5763 5761
5726 5730 5734 5738 5741 5744 5748 5751 5754 5757 5760 5763 5765 5767 5769 5771 5773 5775 5777 5779 5780 5782 5784 5787 5789 5790 5791 5792 5792 5792 5792 5792 5791 5790 5789 5789 5788 5787 5787 5786 5786 5786 5785 5784 5782 5781 5780 5780 5779 5779 5779 5778 5776 5775 5774 5772 5770 5768 5766 5764 5762 5760 5758
5719 5723 5727 5731 5734 5737 5741 5744 5748 5751 5754 5756 5758 5760 5763 5765 5768 5770 5772 5774 5775 5777 5780 5782 5784 5785 5786 5787 5788 5788 5788 5788 5787 5786 5786 5785 5785 5784 5783 5783 5782 5782 5781 5780 5779 5778 5777 5777 5776 5776 5775 5774 5773 5772 5770 5768 5766 5765 5763 5761 5759 5757 5755
5712 5717 5721 5724 5727 5731 5734 5737 5741 5744 5747 5749 5752 5754 5757 5760 5762 5765 5767 5769 5771 5773 5776 5778 5779 5780 5782 5783 5783 5784 5784 5784 5783 5782 5782 5782 5781 5780 5779 5779 5779 5779 5778 5777 5776 5775 5774 5773 5773 5772 5772 5771 5770 5769 5767 5765 5763 5761 5760 5758 5756 5754 5752
5704 5709 5714 5717 5720 5723 5726 5730 5733 5737 5740 5743 5746 5748 5751 5754 5757 5759 5761 5763 5766 5769 5771 5772 5773 5775 5777 5778 5779 5779 5779 5779 5779 5779 5778 5778 5778 5777 5776 5775 5775 5775 5774 5773 5772 5771 5770 5770 5769 5769 5768 5767 5766 5765 5764 5762 5760 5758 5757 5755 5753 5751 5749
5697 5702 5707 5710 5713 5716 5719 5723 5727 5730 5734 5737 5739 5742 5745 5748 5751 5753 5755 5757 5761 5763 5766 5767 5768 5770 5772 5773 5774 5774 5774 5774 5774 5774 5774 5774 5775 5774 5773 5771 5771 5771 5770 5769 5768 5767 5766 5766 5766 5765 5764 5763 5762 5761 5760 5759 5757 5755 5753 5752 5750 5748 5746
5690 5695 5699 5703 5706 5709 5712 5716 5720 5724 5727 5730 5733 5736 5739 5742 5745 5747 5749 5752 5754 5757 5760 5762 5763 5765 5767 5769 5769 5769 5769 5770 5770 5770 5770 5770 5771 5771 5770 5768 5767 5767 5766 5765 5764 5763 5762 5762 5762 5761 5760 5759 5758 5757 5757 5755 5754 5752 5750 5748 5746 5745 5743
5682 5687 5692 5695 5699 5702 5705 5709 5712 5716 5720 5723 5726 5729 5732 5735 5738 5740 5743 5745 5747 5750 5754 5756 5758 5760 5762 5763 5763 5764 5764 5765 5765 5766 5766 5766 5767 5767 5766 5765 5764 5763 5762 5761 5760 5759 5758 5758 5758 5757 5756 5755 5754 5753 5753 5751 5750 5749 5747 5745 5743 5741 5740
5675 5679 5683 5686 5691 5695 5699 5702 5705 5709 5712 5716 5719 5722 5725 5728 5731 5734 5736 5738 5741 5744 5748 5751 5752 5755 5757 5757 5758 5758 5759 5760 5761 5761 5761 5762 5762 5763 5762 5761 5760 5759 5758 5758 5756 5755 5754 5754 5754 5753 5752 5751 5750 5749 5749 5747 5746 5745 5743 5741 5740 5738 5736
5667 5672 5674 5678 5683 5688 5692 5695 5699 5702 5706 5709 5712 5715 5718 5721 5724 5727 5729 5732 5735 5738 5742 5745 5747 5749 5750 5752 5752 5753 5754 5755 5755 5756 5757 5757 5758 5758 5758 5757 5756 5755 5754 5754 5752 5751 5750 5749 5749 5749 5748 5747 5746 5746 5745 5743 5742 5741 5739 5737 5736 5734 5733
5660 5664 5666 5671 5675 5680 5684 5688 5691 5695 5698 5701 5704 5708 5711 5713 5716 5719 5722 5725 5728 5731 5735 5738 5740 5742 5744 5746 5746 5747 5748 5749 5750 5751 5752 5752 5753 5754 5753 5753 5752 5751 5750 5750 5748 5747 5745 5745 5745 5745 5744 5743 5742 5741 5740 5739 5737 5736 5735 5734 5732 5730 5729
5651 5656 5660 5664 5668 5671 5676 5680 5683 5686 5690 5693 5696 5699 5701 5704 5707 5711 5715 5718 5721 5724 5727 5731 5734 5736 5738 5740 5741 5741 5742 5744 5745 5746 5747 5747 5748 5749 5749 5748 5747 5747 5746 5745 5744 5743 5741 5740 5741 5741 5740 5739 5738 5737 5736 5735 5733 5732 5731 5730 5728 5726 5725
5643 5649 5654 5657 5660 5664 5667 5671 5674 5677 5681 5685 5686 5687 5690 5694 5698 5703 5707 5710 5713 5716 5720 5725 5728 5730 5732 5734 5735 5735 5737 5738 5740 5740 5741 5742 5743 5744 5744 5743 5742 5742 5742 5740 5739 5738 5737 5736 5737 5737 5736 5735 5733 5732 5731 5730 5729 5728 5727 5726 5724 5723 5721
5634 5640 5645 5648 5652 5657 5660 5661 5664 5668 5671 5675 5676 5679 5684 5688 5692 5695 5699 5703 5706 5709 5713 5718 5721 5723 5725 5728 5729 5730 5731 5733 5734 5735 5736 5737 5738 5739 5739 5738 5737 5737 5737 5735 5735 5734 5733 5732 5732 5733 5732 5730 5728 5727 5726 5726 5725 5724 5723 5722 5720 5719 5717
5627 5632 5636 5638 5643 5647 5650 5652 5655 5659 5663 5667 5669 5673 5679 5684 5687 5689 5692 5695 5699 5702 5706 5711 5714 5716 5719 5721 5723 5724 5725 5727 5728 5729 5731 5732 5733 5734 5734 5733 5733 5732 5731 5730 5730 5729 5728 5728 5728 5728 5727 5725 5724 5723 5722 5721 5721 5720 5719 5718 5717 5715 5714
5621 5624 5628 5631 5634 5638 5642 5645 5648 5652 5656 5659 5662 5665 5670 5675 5679 5681 5684 5688 5692 5694 5698 5703 5707 5709 5712 5715 5717 5718 5719 5720 5722 5724 5726 5727 5728 5729 5729 5728 5728 5726 5725 5725 5725 5725 5725 5724 5724 5723 5722 5720 5719 5718 5717 5717 5716 5716 5715 5714 5713 5712 5710